IW0HP-3 Weather Reports


time (UTC)temp
F
wind
direction
speed
knots
gust
knots
rain 1hr
in
rain 24hr
in
rain mn
in
humidity
%
barometer
mb
20260906080200 80 0.0 0.0 0.00 0.00 0.00 54 1019.6
20260906074156 80 0.0 0.0 0.00 0.00 0.00 53 1019.5
20260906072151 79 0.0 0.0 0.00 0.00 0.00 52 1019.6
20260906070147 78 0.0 0.0 0.00 0.00 0.00 53 1019.6
20260906064142 78 0.0 0.0 0.00 0.00 0.00 55 1019.5
20260906062138 77 0.0 0.0 0.00 0.00 0.00 58 1019.4
20260906060133 76 0.0 0.0 0.00 0.00 0.00 60 1019.3
20260906054129 76 0.0 0.0 0.00 0.00 0.00 62 1019.2
20260906052124 76 0.0 0.0 0.00 0.00 0.00 61 1019.1
20260906050120 76 0.0 0.0 0.00 0.00 0.00 63 1019.0
20260906044115 76 0.0 0.0 0.00 0.00 0.00 63 1018.9
20260906042110 76 0.0 0.0 0.00 0.00 0.00 63 1018.8
20260906040106 76 0.0 0.0 0.00 0.00 0.00 62 1018.7
20260906034101 76 0.0 0.0 0.00 0.00 0.00 61 1018.5
20260906032057 77 0.0 0.0 0.00 0.00 0.00 61 1018.5
20260906030052 77 0.0 0.0 0.00 0.00 0.00 61 1018.6
20260906024048 77 0.0 0.0 0.00 0.00 0.00 61 1018.5
20260906022043 77 0.0 0.0 0.00 0.00 0.00 62 1018.7
20260906020039 77 0.0 0.0 0.00 0.00 0.00 62 1018.5
20260906014034 77 0.0 0.0 0.00 0.00 0.00 61 1018.6
20260906012030 77 0.0 0.0 0.00 0.00 0.00 61 1018.6
20260906010025 78 0.0 0.0 0.00 0.00 0.00 61 1018.7
20260906004021 78 0.0 0.0 0.00 0.00 0.00 61 1018.5
20260906002016 78 0.0 0.0 0.00 0.00 0.00 61 1018.4
20260906000012 79 0.0 0.0 0.00 0.00 0.00 61 1018.5
20260905234007 79 0.0 0.0 0.00 0.00 0.00 60 1018.6
20260905232003 79 0.0 0.0 0.00 0.00 0.00 60 1018.7
20260905223954 80 0.0 0.0 0.00 0.00 0.00 60 1018.6
20260905221949 80 0.0 0.0 0.00 0.00 0.00 60 1018.7
20260905215943 81 0.0 0.0 0.00 0.00 0.00 60 1018.6
20260905213939 81 0.0 0.0 0.00 0.00 0.00 61 1018.4
20260905211933 81 0.0 0.0 0.00 0.00 0.00 61 1018.3
20260905203923 81 0.0 0.0 0.00 0.00 0.00 60 1018.3
20260905201918 81 0.0 0.0 0.00 0.00 0.00 60 1018.3
20260905195913 82 0.0 0.0 0.00 0.00 0.00 59 1018.2
20260905193908 82 0.0 0.0 0.00 0.00 0.00 59 1018.2
20260905191904 82 0.0 0.0 0.00 0.00 0.00 59 1018.0
20260905185859 83 0.0 0.0 0.00 0.00 0.00 59 1017.7
20260905183855 83 0.0 0.0 0.00 0.00 0.00 58 1017.6
20260905181850 83 0.0 0.0 0.00 0.00 0.00 57 1017.3
20260905175846 84 0.0 0.0 0.00 0.00 0.00 54 1017.0
20260905173841 84 0.0 0.0 0.00 0.00 0.00 51 1016.8
20260905171837 85 0.0 0.0 0.00 0.00 0.00 48 1016.6
20260905165832 86 0.0 0.0 0.00 0.00 0.00 46 1016.6
20260905165455 86 0.0 0.0 0.00 0.00 0.00 46 1016.6
20260905163450 87 0.0 0.0 0.00 0.00 0.00 47 1016.5
20260905155441 87 0.0 0.0 0.00 0.00 0.00 40 1016.4
20260905153437 87 0.0 0.0 0.00 0.00 0.00 42 1016.4
20260905151432 87 0.0 0.0 0.00 0.00 0.00 43 1016.5
20260905145427 87 0.0 0.0 0.00 0.00 0.00 46 1016.5
20260905143423 88 0.0 0.0 0.00 0.00 0.00 44 1016.5
20260905141419 88 0.0 0.0 0.00 0.00 0.00 42 1016.7
20260905135414 89 0.0 0.0 0.00 0.00 0.00 40 1016.8
20260905133409 89 0.0 0.0 0.00 0.00 0.00 37 1016.9
20260905131405 90 0.0 0.0 0.00 0.00 0.00 32 1017.2
20260905125400 90 0.0 0.0 0.00 0.00 0.00 34 1017.3
20260905123356 90 0.0 0.0 0.00 0.00 0.00 33 1017.2
20260905121351 89 0.0 0.0 0.00 0.00 0.00 32 1017.4
20260905115347 89 0.0 0.0 0.00 0.00 0.00 32 1017.5
20260905113342 89 0.0 0.0 0.00 0.00 0.00 33 1017.5
20260905111338 88 0.0 0.0 0.00 0.00 0.00 32 1017.6
20260905105333 87 0.0 0.0 0.00 0.00 0.00 31 1017.7
20260905103329 87 0.0 0.0 0.00 0.00 0.00 32 1017.9
20260905101324 86 0.0 0.0 0.00 0.00 0.00 33 1017.9
20260905095320 85 0.0 0.0 0.00 0.00 0.00 34 1018.0
20260905093316 84 0.0 0.0 0.00 0.00 0.00 35 1018.2
20260905081258 81 0.0 0.0 0.00 0.00 0.00 42 1018.2